Wind_Speed
18 18 17 16 17 19 20 22 24 25 27 29 29 27 22 18 17 16 15 16 17 16 17 17 17 17 18 19 21 22 25 27 27 28 29 28 25 25 26 27 27 26
16 16 15 15 17 19 19 21 22 23 25 26 25 25 22 18 16 13 11 13 15 15 16 17 17 18 20 21 22 24 26 27 27 28 28 27 25 26 27 27 27 26
14 14 15 16 17 19 19 20 21 20 22 23 21 20 20 19 18 13 9 12 14 15 16 17 18 19 22 23 24 25 26 26 27 27 27 26 26 27 28 27 26 26
14 14 16 17 17 19 19 20 20 19 20 22 20 20 20 21 20 15 12 13 14 15 16 17 19 21 22 24 26 27 27 26 26 27 28 26 25 27 28 28 27 27
14 15 16 17 18 18 19 20 20 19 20 21 21 20 20 21 19 17 16 16 15 16 17 17 19 21 22 23 26 28 28 27 26 27 28 27 26 29 30 30 28 28
13 14 15 16 17 17 18 19 20 20 20 21 21 21 20 21 20 19 21 20 18 18 18 18 18 20 21 23 25 27 29 28 26 27 29 29 28 30 32 32 30 29
12 13 14 15 15 16 17 17 18 19 20 20 20 20 21 23 23 23 24 24 22 21 20 19 19 19 21 23 25 27 29 29 27 27 29 30 30 30 32 33 31 30
12 13 13 14 14 15 16 17 17 18 19 20 19 19 20 23 25 26 27 28 27 24 22 21 21 21 21 22 24 26 28 30 29 28 30 31 31 31 32 32 31 30
13 13 14 14 14 15 16 17 17 18 18 19 19 19 19 21 24 27 30 31 30 27 25 24 24 23 22 22 24 26 27 28 28 29 31 32 32 32 32 32 31 30
14 15 15 15 15 16 17 17 18 18 18 18 18 19 19 20 23 26 30 32 32 28 27 27 27 26 24 24 25 26 27 27 27 29 31 31 31 33 33 33 32 30
17 17 18 18 18 18 18 19 19 19 19 18 18 18 18 19 22 24 27 27 27 26 27 27 28 29 27 25 25 27 27 26 26 29 30 30 32 34 33 32 31 30
19 20 20 20 20 21 20 21 21 20 20 19 19 19 18 19 20 22 23 21 20 24 28 27 26 27 27 26 27 28 27 25 26 29 30 31 33 34 33 32 31 30
20 20 21 21 21 21 21 21 20 20 20 20 20 20 20 19 20 21 22 22 22 26 29 27 25 25 25 27 28 29 29 27 27 29 31 33 35 35 33 31 30 30
19 20 21 21 21 21 21 21 20 19 20 20 21 22 22 22 21 21 22 24 26 29 31 30 27 25 24 25 26 28 30 30 29 29 32 35 35 35 33 30 29 30
19 20 20 21 21 21 21 21 20 20 21 22 22 23 24 24 24 23 23 24 26 29 32 32 29 27 25 26 26 26 28 30 30 30 32 33 33 33 31 29 29 30
20 20 20 21 22 22 23 23 23 23 24 24 25 25 26 26 26 26 25 25 25 27 29 30 30 29 28 28 28 27 27 28 30 31 31 32 33 34 32 30 30 30
21 22 22 23 24 25 26 26 26 27 28 29 29 29 29 29 29 28 27 27 26 26 26 27 29 30 29 29 29 29 28 28 29 30 30 33 35 35 33 32 32 30
23 24 25 26 27 27 29 30 31 31 32 32 33 32 32 32 31 30 29 28 27 26 26 26 28 29 28 28 30 31 31 31 30 28 30 33 35 34 33 34 34 32
24 25 26 27 29 30 31 32 33 35 35 36 35 35 34 33 32 31 30 29 28 27 26 26 28 29 29 30 31 32 33 33 32 30 32 35 33 32 34 35 34 33
24 25 26 27 29 30 31 32 33 34 35 36 36 35 35 33 32 31 30 29 28 27 27 27 28 30 32 33 33 33 34 34 33 34 36 35 32 32 33 34 33 32
22 23 24 25 26 28 29 30 31 31 32 33 33 34 34 33 32 30 29 29 29 28 28 28 29 30 32 35 35 34 35 35 35 35 37 35 33 33 33 33 33 33
19 20 21 22 23 24 25 27 28 28 28 28 29 30 31 31 31 30 29 28 28 29 29 29 30 31 32 34 36 36 36 36 36 36 37 36 34 34 34 35 37 36
17 18 19 20 21 21 23 24 25 25 25 25 26 26 27 28 30 30 30 30 29 30 30 30 31 32 33 34 35 37 37 37 37 37 38 37 36 36 36 36 37 36
17 18 19 20 20 20 21 22 23 24 24 23 23 24 24 24 25 26 28 29 30 30 31 31 31 32 33 34 35 36 37 37 37 37 38 38 37 37 37 35 33 33
17 18 18 19 19 19 20 21 22 24 24 23 22 23 22 22 21 21 22 24 26 28 29 30 29 30 32 33 34 34 36 36 37 38 38 38 37 36 37 35 34 34
17 18 18 18 19 19 20 20 21 23 24 24 23 22 22 21 20 19 19 19 20 22 24 25 25 26 28 30 30 32 33 34 35 36 38 39 37 37 38 37 37 36
Wind_Direction
298 300 301 302 304 307 309 309 309 307 304 302 299 291 276 270 279 286 291 294 297 298 289 277 271 266 258 250 240 235 239 243 242 242 241 234 225 225 226 224 224 227
299 300 301 304 307 308 309 310 311 312 307 303 302 295 279 267 270 274 282 292 295 296 289 277 268 263 256 249 243 240 243 245 245 243 242 237 232 229 225 223 225 227
297 296 296 301 305 306 307 308 310 312 308 302 299 293 284 276 275 277 285 294 295 296 290 279 269 261 256 252 247 246 245 243 243 241 240 238 235 229 223 223 226 228
299 297 296 298 301 303 305 306 307 308 306 302 294 287 283 280 282 289 292 291 293 295 293 285 273 262 256 254 251 248 244 238 237 236 236 235 234 229 224 225 228 229
298 298 298 300 303 303 304 303 305 306 306 304 298 289 281 278 283 290 286 282 284 289 291 289 281 268 258 255 252 249 244 239 235 235 235 232 231 230 228 227 228 229
297 300 302 306 308 307 306 303 303 305 305 305 303 297 287 282 283 284 281 280 280 282 286 288 284 274 263 257 253 249 246 241 236 236 236 231 230 230 228 228 229 230
303 308 311 314 315 314 312 310 307 305 304 303 303 300 293 287 283 279 278 278 274 273 277 281 282 277 268 260 255 250 248 245 240 237 236 233 230 228 226 227 228 231
309 313 316 319 320 320 320 319 316 311 307 304 302 298 293 288 284 280 276 273 271 270 271 274 275 272 267 262 256 252 251 250 246 241 237 234 232 228 225 226 228 233
311 313 315 317 317 318 320 320 320 318 313 309 305 299 292 288 286 283 278 273 272 277 280 278 275 271 266 262 257 253 251 250 247 242 237 234 232 228 223 224 229 234
308 308 310 312 311 313 316 317 318 318 316 313 310 304 296 290 286 287 287 277 267 272 283 285 281 276 268 262 258 254 251 247 245 244 240 235 232 229 224 222 227 233
307 308 309 310 310 311 312 313 314 313 312 311 311 308 302 295 289 291 297 287 269 269 281 283 280 279 275 269 263 258 252 244 241 243 243 239 235 231 227 226 228 231
307 308 309 309 311 311 311 311 310 309 308 306 306 307 305 301 294 291 296 294 280 277 280 278 279 282 283 280 273 264 256 246 241 242 243 243 240 234 229 227 228 230
305 306 307 307 308 308 308 309 308 308 308 305 303 304 304 303 300 293 289 288 283 280 280 279 281 283 283 284 282 274 263 252 245 244 244 244 243 240 234 228 228 230
303 303 304 304 304 305 304 305 306 307 308 307 306 303 302 301 299 294 288 282 278 277 278 281 283 283 283 283 284 283 273 259 249 246 246 245 244 242 238 233 231 233
301 302 302 303 303 303 303 302 303 304 305 306 306 305 303 301 298 295 291 285 280 276 276 280 281 281 279 276 277 283 280 267 253 248 248 248 248 246 242 238 234 235
301 301 302 302 303 303 302 301 301 301 302 303 303 302 302 301 299 296 292 288 286 280 277 277 277 275 274 273 272 275 277 273 263 255 250 249 249 246 243 239 236 235
303 303 303 303 303 302 302 302 301 301 301 301 301 300 300 299 298 296 292 289 287 284 279 276 272 271 271 269 268 268 268 270 270 265 257 251 248 245 241 238 236 235
305 304 304 303 303 302 302 302 302 302 301 301 301 300 299 298 296 294 292 289 286 283 280 275 269 268 267 264 262 262 262 262 264 265 260 254 250 248 245 240 236 236
307 306 305 303 303 303 303 303 302 302 302 302 301 301 299 297 296 293 291 288 285 282 278 274 268 264 264 262 258 257 258 258 257 257 254 250 246 244 242 237 234 235
311 309 307 306 305 305 305 304 304 304 303 303 302 301 300 297 295 293 290 287 284 280 277 274 269 264 263 262 259 255 255 255 253 252 251 249 245 241 237 233 232 234
313 311 310 309 308 308 308 308 308 307 306 306 304 303 301 299 296 293 290 286 282 279 276 273 271 267 263 261 259 255 253 253 252 251 251 250 248 246 243 239 236 236
314 313 313 314 313 313 313 313 313 312 310 308 307 305 303 301 298 295 292 287 283 279 276 273 270 267 263 260 258 255 253 252 251 249 249 249 248 248 248 244 239 236
320 319 319 319 318 317 315 315 316 316 314 311 308 305 303 300 299 297 294 291 286 281 278 274 269 266 262 258 256 254 253 253 252 250 249 248 248 248 247 245 240 236
329 328 327 325 323 321 318 316 317 319 318 315 312 309 306 300 298 298 296 294 289 284 280 275 270 265 262 258 254 252 251 252 254 253 249 248 249 248 247 245 239 236
337 335 333 331 330 328 324 320 319 321 323 323 319 316 313 308 303 301 301 298 294 290 285 279 272 265 261 258 255 253 251 251 254 253 249 246 247 246 247 246 241 236
340 339 337 335 333 332 331 327 323 323 326 327 326 323 321 319 315 311 308 308 305 301 297 292 283 272 264 260 256 255 254 253 254 253 248 245 245 246 246 247 244 237
Height
3133 3132 3132 3131 3130 3129 3127 3125 3122 3120 3118 3117 3116 3114 3113 3111 3111 3111 3111 3111 3110 3110 3109 3108 3108 3108 3109 3109 3110 3112 3113 3115 3116 3117 3118 3120 3121 3122 3124 3126 3127 3129
3131 3130 3130 3129 3128 3127 3125 3124 3121 3118 3116 3115 3113 3113 3112 3110 3107 3106 3107 3107 3108 3108 3107 3107 3107 3107 3107 3107 3108 3109 3110 3112 3113 3115 3116 3118 3119 3119 3121 3123 3125 3127
3129 3129 3128 3127 3126 3125 3124 3122 3120 3117 3115 3113 3112 3111 3111 3110 3106 3103 3103 3104 3105 3105 3105 3105 3105 3106 3105 3105 3105 3106 3107 3109 3111 3112 3113 3115 3116 3116 3118 3120 3122 3124
3127 3127 3126 3125 3124 3123 3122 3120 3118 3116 3113 3111 3111 3110 3109 3109 3107 3103 3101 3102 3103 3103 3103 3103 3103 3104 3103 3103 3103 3103 3104 3106 3107 3109 3110 3111 3112 3114 3116 3118 3120 3122
3125 3125 3124 3123 3122 3121 3119 3118 3116 3114 3112 3109 3109 3109 3109 3107 3105 3102 3101 3101 3101 3101 3101 3100 3100 3101 3101 3102 3101 3101 3102 3103 3104 3105 3106 3108 3109 3111 3113 3115 3117 3119
3124 3123 3122 3121 3120 3119 3117 3116 3114 3113 3111 3108 3107 3107 3106 3105 3102 3100 3101 3101 3099 3099 3098 3098 3098 3098 3098 3099 3099 3099 3100 3101 3101 3102 3103 3105 3106 3108 3110 3111 3113 3115
3122 3121 3120 3119 3118 3117 3116 3114 3112 3111 3109 3107 3106 3105 3104 3103 3101 3099 3099 3098 3097 3096 3096 3096 3095 3095 3095 3096 3096 3097 3097 3097 3097 3099 3100 3101 3103 3105 3106 3108 3110 3112
3121 3120 3119 3118 3117 3115 3114 3112 3111 3109 3107 3106 3105 3104 3103 3102 3100 3098 3097 3096 3095 3094 3094 3094 3093 3093 3092 3092 3093 3093 3094 3094 3094 3096 3097 3098 3100 3101 3103 3104 3106 3108
3119 3118 3117 3116 3115 3114 3112 3111 3109 3108 3106 3104 3103 3102 3101 3100 3098 3096 3094 3094 3094 3094 3093 3092 3092 3091 3090 3089 3090 3091 3091 3091 3092 3093 3093 3095 3097 3098 3100 3101 3103 3105
3118 3117 3116 3115 3113 3112 3111 3110 3108 3106 3104 3103 3101 3100 3099 3098 3096 3094 3092 3092 3092 3092 3092 3091 3091 3090 3089 3088 3088 3088 3088 3089 3089 3089 3090 3092 3093 3094 3095 3098 3100 3102
3116 3115 3114 3113 3112 3111 3109 3108 3106 3105 3103 3101 3100 3098 3096 3095 3094 3092 3090 3088 3088 3089 3089 3089 3089 3089 3089 3088 3087 3086 3085 3085 3086 3086 3087 3088 3089 3090 3092 3094 3096 3099
3113 3112 3111 3110 3110 3108 3107 3106 3105 3103 3101 3100 3098 3096 3094 3093 3091 3090 3088 3086 3086 3087 3087 3087 3087 3087 3087 3087 3086 3085 3083 3083 3083 3083 3084 3085 3086 3088 3089 3091 3093 3095
3111 3110 3109 3108 3107 3106 3105 3104 3102 3101 3099 3098 3096 3094 3092 3091 3089 3088 3086 3085 3084 3084 3084 3085 3085 3085 3085 3084 3084 3082 3081 3080 3080 3080 3081 3082 3083 3085 3086 3087 3090 3092
3109 3108 3107 3106 3105 3104 3103 3102 3100 3099 3097 3096 3094 3092 3090 3089 3087 3086 3084 3083 3082 3081 3080 3081 3082 3082 3082 3082 3081 3080 3079 3078 3078 3077 3078 3079 3080 3081 3083 3085 3087 3089
3107 3106 3105 3103 3102 3101 3100 3099 3098 3097 3095 3094 3092 3090 3088 3086 3085 3083 3082 3080 3079 3078 3078 3078 3079 3078 3078 3079 3078 3078 3077 3076 3075 3074 3074 3075 3077 3078 3079 3082 3085 3086
3105 3104 3102 3101 3100 3098 3097 3096 3095 3094 3093 3091 3090 3088 3086 3084 3082 3080 3079 3077 3076 3075 3075 3075 3075 3074 3075 3076 3076 3075 3075 3074 3072 3072 3073 3073 3073 3074 3075 3079 3082 3083
3102 3101 3100 3098 3097 3095 3094 3093 3091 3090 3089 3088 3086 3085 3083 3081 3079 3077 3075 3074 3073 3072 3072 3071 3071 3070 3071 3072 3072 3072 3071 3070 3069 3070 3071 3071 3071 3071 3072 3075 3079 3081
3099 3098 3097 3095 3094 3093 3091 3089 3088 3086 3085 3084 3082 3081 3079 3078 3076 3074 3072 3071 3070 3069 3068 3067 3067 3066 3066 3067 3067 3067 3067 3066 3066 3067 3068 3069 3069 3070 3070 3072 3075 3077
3097 3095 3094 3092 3091 3090 3088 3086 3084 3083 3081 3079 3078 3076 3075 3074 3072 3070 3068 3067 3066 3065 3064 3063 3062 3062 3062 3062 3063 3063 3063 3063 3063 3063 3064 3065 3068 3069 3069 3071 3073 3073
3094 3093 3091 3090 3088 3087 3085 3083 3082 3080 3077 3075 3073 3072 3070 3069 3067 3066 3064 3063 3062 3061 3060 3059 3058 3058 3058 3058 3059 3060 3059 3059 3060 3061 3061 3063 3065 3066 3067 3069 3070 3071
3092 3091 3089 3088 3086 3084 3082 3081 3079 3077 3075 3072 3070 3068 3066 3064 3063 3062 3060 3059 3058 3057 3057 3056 3055 3054 3053 3053 3054 3055 3055 3056 3057 3058 3058 3060 3062 3063 3063 3066 3067 3068
3091 3089 3087 3086 3084 3082 3080 3078 3076 3074 3072 3070 3067 3065 3062 3060 3059 3057 3056 3055 3054 3053 3052 3052 3051 3050 3049 3049 3049 3050 3051 3052 3053 3054 3055 3056 3058 3059 3060 3062 3063 3063
3089 3087 3085 3083 3082 3080 3078 3076 3074 3072 3069 3067 3065 3063 3060 3058 3056 3054 3052 3051 3050 3048 3048 3047 3047 3046 3045 3044 3045 3046 3047 3048 3049 3050 3050 3052 3054 3055 3055 3056 3058 3060
3087 3085 3083 3081 3080 3078 3076 3074 3072 3069 3067 3065 3063 3061 3059 3056 3054 3052 3049 3047 3046 3044 3043 3043 3042 3042 3041 3040 3040 3041 3042 3043 3045 3046 3047 3048 3050 3051 3051 3052 3055 3058
3086 3084 3082 3080 3078 3076 3074 3072 3070 3067 3065 3063 3061 3059 3057 3054 3052 3050 3047 3045 3043 3041 3039 3038 3038 3037 3036 3036 3036 3037 3038 3039 3041 3042 3044 3045 3046 3046 3047 3049 3052 3054
3085 3083 3081 3079 3077 3075 3072 3070 3068 3066 3063 3061 3059 3057 3055 3052 3050 3048 3046 3044 3041 3039 3037 3035 3034 3033 3032 3032 3032 3033 3034 3036 3037 3038 3040 3041 3042 3043 3044 3046 3048 3049